Tracking 26218 objects as of 26-Sep-2022
HD Live streaming from Space Station
objects crossing your sky now

STARLINK-3308

Track STARLINK-3308 now!
10-day predictions
STARLINK-3308 is classified as:


NORAD ID: 50846
Int'l Code: 2022-001AV
Perigee: 545.8 km
Apogee: 547.8 km
Inclination: 53.2 °
Period: 95.4 minutes
Semi major axis: 6917 km
RCS: Unknown
Launch date: January 6, 2022
Source: United States (US)
Launch site: AIR FORCE EASTERN TEST RANGE (AFETR)
aabbcc
Your satellite tracking list
Your tracking list is empty




NASA's NSSDC Master Catalog

Two Line Element Set (TLE):
1 50846U 22001AV  22268.78153872 -.00007380  00000-0 -44584-3 0  9997
2 50846  53.2166  79.5640 0001409  57.7769 302.3360 15.08859082 39919
Source of the keplerian elements: AFSPC